{"data":{"norad_id":64144,"epoch":"2026-09-20T03:38:04.071264Z","epoch_age_seconds":170528,"freshness":"FRESH","line1":"1 64144U 25111X   26263.15143601  .00010851  00000+0  40318-3 0  9992","line2":"2 64144  42.9982  59.6655 0001678 271.5249  88.5411 15.27585407 75208","mean_motion":15.27585407,"eccentricity":0.0001678,"inclination_deg":42.9982,"raan_deg":59.6655,"arg_perigee_deg":271.5249,"mean_anomaly_deg":88.5411,"bstar":0.00040318,"rev_number":7520,"period_min":94.266415049617,"perigee_km":481.88160127409,"apogee_km":484.18420989441,"semimajor_km":6861.1699055843,"source":"CELESTRAK","updated_at":"2026-09-21T09:00:35.236844Z"}}